Weather History for Toronto, ON

Change the Weather History Date:

Wednesday, October 17, 2012

  Actual Average Record
Temperature  
Mean Temperature 48 °F -  
Max Temperature 56 °F 50 °F 64 °F (1998)
Min Temperature 39 °F 39 °F 39 °F (2012)
Degree Days  
Heating Degree Days 18    
Moisture  
Dew Point 45 °F    
Average Humidity 88    
Maximum Humidity 100    
Minimum Humidity 65    
Precipitation  
Precipitation 0.08 in 0.09 in - ()
Sea Level Pressure  
Sea Level Pressure 29.83 in    
Wind  
Wind Speed 7 mph ()    
Max Wind Speed 15 mph    
Max Gust Speed -    
Visibility 8.0 miles    
Events Rain    
Averages and records for this station are not official NWS values.
T = Trace of Precipitation, MM = Missing Value Source: Averaged Metar Reports

Daily Weather History Graph

Daily Weather History Graph

Search for Another Location

Airport:

Trip Planner

Search our weather history database for the weather conditions in past years. The results will help you decide how hot, cold, wet, or windy it might be!

Date:

Astronomy

Oct. 17, 2012 Rise Set
Actual Time 7:34 AM EDT 6:30 PM EDT
Civil Twilight 7:05 AM EDT 6:59 PM EDT
Nautical Twilight 6:32 AM EDT 7:32 PM EDT
Astronomical Twilight 5:59 AM EDT 8:05 PM EDT
Moon 10:12 AM EDT (10/17) 7:58 PM EDT (10/17)
Length of Visible Light 11h 53m
Length of Day
10h 55m
Waxing Crescent, 7% of the Moon is Illuminated
Oct 17
Waxing Crescent
Oct 21
First Quarter
Oct 29
Full
Nov 6
Last Quarter
Nov 13
New

Hourly Weather History & Observations

Time (EDT) Temp. Windchill Dew Point Humidity Pressure Visibility Wind Dir Wind Speed Gust Speed Precip Events Conditions
12:00 AM 42.8 °F - 41.0 °F 93% 29.88 in 9.0 mi Variable 2.3 mph - N/A   Clear
1:50 AM 41.0 °F - 39.2 °F 93% 29.90 in 4.0 mi Calm Calm - N/A   Clear
1:52 AM 41.0 °F - 39.2 °F 93% 29.90 in 2.5 mi Calm Calm - N/A   Clear
2:00 AM 41 °F - 40 °F 95% 29.90 in 3 mi ENE 1.2 mph - -   Mist
2:02 AM 41.0 °F - 39.2 °F 93% 29.90 in 6.0 mi Calm Calm - N/A   Clear
2:41 AM 41.0 °F 39.0 °F 39.2 °F 93% 29.90 in 5.0 mi ESE 3.5 mph - N/A   Clear
3:00 AM 41.0 °F 39.0 °F 41.0 °F 100% 29.89 in 9.0 mi ENE 3.5 mph - N/A   Clear
4:00 AM 42.8 °F 37.5 °F 42.8 °F 100% 29.87 in 9.0 mi ENE 9.2 mph - N/A   Clear
5:00 AM 44.6 °F 38.4 °F 42.8 °F 93% 29.86 in 8.0 mi ENE 12.7 mph - N/A   Mostly Cloudy
6:00 AM 44.6 °F 38.4 °F 42.8 °F 93% 29.87 in 9.0 mi ENE 12.7 mph - N/A   Overcast
7:00 AM 44.6 °F 38.8 °F 42.8 °F 93% 29.87 in 9.0 mi ENE 11.5 mph - N/A   Overcast
8:00 AM 46 °F - 43 °F 86% 29.86 in 10 mi ENE 11.5 mph - -   Overcast
8:00 AM 46.4 °F 41.1 °F 42.8 °F 87% 29.86 in 9.0 mi ENE 11.5 mph - N/A   Overcast
8:34 AM 46.4 °F 41.9 °F 42.8 °F 87% 29.88 in 9.0 mi ENE 9.2 mph - N/A Rain Light Rain
8:52 AM 46.4 °F 42.9 °F 42.8 °F 87% 29.88 in 5.0 mi East 6.9 mph - N/A Rain Rain
9:00 AM 46.4 °F 42.4 °F 42.8 °F 87% 29.88 in 4.0 mi East 8.1 mph - N/A Rain Light Rain
9:07 AM 46.4 °F 40.7 °F 42.8 °F 87% 29.88 in 6.0 mi ENE 12.7 mph - N/A Rain Light Rain
9:43 AM 46.4 °F 41.1 °F 44.6 °F 93% 29.87 in 9.0 mi ENE 11.5 mph - N/A   Overcast
10:00 AM 46.4 °F 41.1 °F 44.6 °F 93% 29.87 in 9.0 mi ENE 11.5 mph - N/A   Overcast
10:10 AM 46.4 °F 41.9 °F 44.6 °F 93% 29.87 in 9.0 mi East 9.2 mph - N/A Rain Light Rain
10:23 AM 46.4 °F 42.9 °F 44.6 °F 93% 29.87 in 9.0 mi East 6.9 mph - N/A   Overcast
10:47 AM 48.2 °F - 44.6 °F 87% 29.87 in 9.0 mi East 6.9 mph - N/A Rain Light Rain
11:00 AM 48.2 °F - 44.6 °F 87% 29.86 in 8.0 mi East 8.1 mph - N/A Rain Light Rain
11:18 AM 46.4 °F 41.5 °F 44.6 °F 93% 29.85 in 5.0 mi ENE 10.4 mph - N/A Rain Rain
11:34 AM 46.4 °F 41.1 °F 46.4 °F 100% 29.84 in 6.0 mi ENE 11.5 mph - N/A Rain Light Rain
12:00 PM 48.2 °F - 46.4 °F 93% 29.83 in 9.0 mi ENE 9.2 mph - N/A Rain Light Rain
12:30 PM 50.0 °F - 46.4 °F 87% 29.82 in 9.0 mi East 6.9 mph - N/A   Mostly Cloudy
1:00 PM 51.8 °F - 48.2 °F 88% 29.80 in 9.0 mi East 5.8 mph - N/A   Mostly Cloudy
2:00 PM 57 °F - 49 °F 65% 29.80 in 10 mi SSE 6.9 mph - -   Clear
2:00 PM 57.2 °F - 48.2 °F 72% 29.80 in 9.0 mi South 6.9 mph - N/A   Scattered Clouds
3:00 PM 53.6 °F - 46.4 °F 77% 29.78 in 9.0 mi ENE 10.4 mph - N/A   Clear
5:00 PM 51.8 °F - 46.4 °F 82% 29.76 in 9.0 mi East 15.0 mph - N/A   Mostly Cloudy
6:00 PM 51.8 °F - 46.4 °F 82% 29.77 in 9.0 mi ENE 13.8 mph - N/A   Mostly Cloudy
6:39 PM 51.8 °F - 46.4 °F 82% 29.77 in 9.0 mi ENE 15.0 mph - N/A Rain Light Rain
6:48 PM 51.8 °F - 48.2 °F 88% 29.77 in 9.0 mi ENE 15.0 mph - N/A   Overcast
6:50 PM 51.8 °F - 48.2 °F 88% 29.77 in 9.0 mi ENE 15.0 mph - N/A Rain Light Rain
7:00 PM 51.8 °F - 48.2 °F 88% 29.77 in 9.0 mi ENE 13.8 mph - N/A   Overcast
7:03 PM 51.8 °F - 48.2 °F 88% 29.77 in 9.0 mi ENE 15.0 mph - N/A Rain Light Rain
7:12 PM 51.8 °F - 48.2 °F 88% 29.78 in 9.0 mi ENE 13.8 mph - N/A   Overcast
8:00 PM 51 °F - 47 °F 82% 29.77 in 10 mi ENE 13.8 mph - -  
8:00 PM 51.8 °F - 46.4 °F 82% 29.77 in 9.0 mi ENE 12.7 mph - N/A   Scattered Clouds
9:00 PM 51.8 °F - 48.2 °F 88% 29.76 in 9.0 mi ENE 13.8 mph - N/A   Clear
10:00 PM 53.6 °F - 46.4 °F 77% 29.75 in 9.0 mi ENE 15.0 mph - N/A   Clear
11:00 PM 53.6 °F - 46.4 °F 77% 29.75 in 9.0 mi ENE 13.8 mph - N/A   Clear